Location: Saratoga Springs
(43.0831°N, 73.7850°W)
Time: 16:39:51
(UTC-04:00)

Tiros 1 - Pass Details

Date: 23 April 2024
Orbit: 624 x 657 km, 48.4° (Epoch: 28 May)

Event Time Altitude Azimuth Distance (km) Brightness Sun altitude
Rises 02:10:17 0° 275° (W) 2,927 - -31.5°
Reaches altitude 10° 02:12:43 10° 282° (WNW) 2,014 - -31.3°
Maximum altitude 02:17:08 43° 355° (N) 880 - -31.0°
Exits shadow 02:18:24 35° 35° (NE) 1,019 8.6 -30.9°
Drops below altitude 10° 02:21:32 10° 67° (ENE) 2,000 10.2 -30.7°
Sets 02:23:57 0° 74° (ENE) 2,905 11.0 -30.5°
